Regional Weather Roundup
Issued by NWS Bismarck, ND

Home | Current Version | Previous Version | Text Only | Print | Product List | Glossary On
Versions: 1 2 3 4 5 6 7 8 9 10 11 12 13 14 15 16 17 18 19 20 21 22 23 24 25 26 27 28 29 30 31 32 33 34 35 36 37 38 39 40 41 42 43 44 45 46 47 48 49 50
000
ASUS43 KBIS 271902
RWRBIS

NWR BROADCAST TEXT
NATIONAL WEATHER SERVICE BISMARCK ND
200 PM CDT SUN MAY 27 2018

NOTE: "FAIR" INDICATES FEW OR NO CLOUDS BELOW 12,000 FEET WITH NO
SIGNIFICANT WEATHER AND/OR OBSTRUCTIONS TO VISIBILITY.


CITY           SKY/WX    TMP DP  RH WIND       PRES   REMARKS
WILLISTON      CLOUDY    78  59  51 N7        29.94S
MINOT          PTSUNNY   80  57  45 VRB5      29.86F
MINOT AFB      CLOUDY    79  57  46 NE10      29.85F
BISMARCK       PTSUNNY   79  60  52 NE10      29.84R
DICKINSON      MOSUNNY   77  56  48 N12G22    29.88R
GARRISON         N/A     75  61  61 N8        29.85F
HETTINGER ARPT SUNNY     78  57  48 NW16      29.89R
JAMESTOWN      CLOUDY    75  65  70 N15       29.82R
CARRINGTON     FAIR      73  64  73 NE13      29.86F
HAZEN          FAIR      75  63  64 N14G22    29.86F
LINTON           N/A    N/A N/A N/A E9G16     29.79F
MANDAN         FAIR      77  63  61 N12G20    29.86R
OAKES            N/A     82  64  54 SE23G31   29.76F
STANLEY          N/A     75  63  64 N10       29.94S HAZE
TIOGA          FAIR      75  63  64 NW8       29.95R
WATFORD CITY   FAIR      77  61  57 N10       29.91S
$$

CITY           SKY/WX    TMP DP  RH WIND       PRES   REMARKS
GRAND FORKS    PTSUNNY   77  63  61 N12       29.82S
GRAND FORKS AF FAIR      77  63  61 NE10      29.83S
DEVILS LAKE    FAIR      76  58  53 VRB3      29.86F
FARGO          FAIR      76  62  62 S14       29.75S
CANDO          MOCLDY    79  57  47 VRB3      29.89S
CAVALIER         N/A     75  64  69 E7        29.84F
GRAFTON        FAIR      79  64  61 NE7       29.85F
GWINNER          N/A     79  66  65 SE22G28   29.77F
LANGDON        MOCLDY    81  63  54 E5        29.88F
ROLLA          FAIR      77  55  47 S6        29.89S
WALHALLA       FAIR      73  68  83 VRB6      29.85F
$$

CITY           SKY/WX    TMP DP  RH WIND       PRES   REMARKS
ABERDEEN       PTSUNNY   95  60  31 SE16G31   29.72F HX  95
MOBRIDGE       MOSUNNY   88  61  40 NW6       29.73R
BUFFALO          N/A     78  56  46 NW18      29.86R
RAPID CITY     SUNNY     80  58  46 N17       29.87F
GLASGOW        SUNNY     82  47  29 NE16      29.97S
SIDNEY         MOSUNNY   75  62  64 NW7       29.94S
WOLF POINT     MOSUNNY   78  58  49 N9        29.96S
GLENDIVE       MOSUNNY   74  61  63 NW9       29.96F
MILES CITY     PTSUNNY   75  60  59 SE5       29.98R
BAKER          MOSUNNY   76  56  49 NW16G23   29.97R
$$

CITY           SKY/WX    TMP DP  RH WIND       PRES   REMARKS
BILLINGS       CLOUDY    67  54  63 N13       30.02F
GREAT FALLS    SUNNY     75  45  34 NW6       30.07S
$$




USA.gov is the U.S. government's official web portal to all federal, state and local government web resources and services.